SCP
0 0 0 0 0 0 0 0 0 0 0 0 0 0 0 0 0 0 0 0 0 0 0 0 0 0 0 1 1 0 0 0 0 0 0 0 0 0 0 0 0 0 0 0
0 0 0 0 0 0 0 0 0 0 0 0 0 0 0 0 0 0 0 0 0 0 0 0 0 0 0 1 1 0 0 0 0 0 0 0 0 0 0 0 0 0 0 0
0 0 0 0 0 0 0 0 0 0 0 0 0 0 0 0 0 0 0 0 0 0 0 0 0 0 1 1 1 0 0 0 0 0 0 0 0 0 0 0 0 0 0 0
0 0 0 0 0 0 0 0 0 0 0 0 0 0 0 0 0 0 0 0 0 0 0 0 0 0 0 1 1 0 0 0 0 0 0 0 0 0 0 0 0 0 0 0
0 0 0 0 0 0 0 0 0 0 0 0 0 0 0 0 0 0 0 0 0 0 0 0 0 0 0 1 1 0 0 0 0 0 0 0 0 0 0 0 0 0 0 0
0 0 0 0 0 0 0 0 0 0 0 0 0 0 0 0 0 0 0 0 0 0 0 0 0 0 0 1 0 0 0 0 0 0 0 0 0 0 0 0 0 0 0 0
0 0 0 0 0 0 0 0 0 0 0 0 0 0 0 0 0 0 0 0 0 0 0 0 0 0 0 1 0 0 0 0 0 0 0 0 0 0 0 0 0 0 0 0
0 0 0 0 0 0 0 0 0 0 0 0 0 0 0 0 0 0 0 0 0 0 0 0 0 0 1 1 0 0 0 0 0 0 0 0 0 0 0 0 0 0 0 0
0 0 0 0 0 0 0 0 0 0 0 0 0 0 0 0 0 0 0 0 0 0 0 0 0 0 1 0 0 0 0 0 0 0 0 0 0 0 0 0 0 0 0 0
0 0 0 0 0 0 0 0 0 0 0 0 0 0 0 0 0 0 0 0 0 0 0 0 0 0 0 0 0 0 0 0 0 0 0 0 0 0 0 0 0 0 0 0
0 0 0 0 0 0 0 0 0 0 0 0 0 0 0 0 0 0 0 0 0 0 0 0 0 0 0 0 0 0 0 0 0 0 0 0 0 0 0 0 0 0 0 0
0 0 0 0 0 0 0 0 0 0 0 0 0 0 0 0 0 0 0 0 0 0 0 0 0 0 0 0 0 0 0 0 0 0 0 0 0 0 0 0 0 0 0 0
0 0 0 0 0 0 0 0 0 0 0 0 0 0 0 0 0 0 0 0 0 0 0 0 0 0 0 0 0 0 0 0 0 0 0 0 0 0 0 0 0 0 0 0
0 0 0 0 0 0 0 0 0 0 0 0 0 0 0 0 0 0 0 0 0 0 0 0 0 0 0 0 0 0 0 0 0 0 0 0 0 0 0 0 0 0 0 0
0 0 0 0 0 0 0 0 0 0 0 0 0 0 0 0 0 0 0 0 0 0 0 0 0 0 0 0 0 0 0 0 0 0 0 0 0 0 0 0 0 0 0 0
0 0 0 0 0 0 0 0 0 0 0 0 0 0 0 0 0 0 0 0 0 0 0 0 0 0 0 0 0 0 0 0 0 0 0 0 0 0 0 0 0 0 0 0
0 0 0 0 0 0 0 0 0 0 0 0 0 0 0 0 0 0 0 0 0 0 0 0 0 0 0 0 0 0 0 0 0 0 0 0 0 0 0 0 0 0 0 0
0 0 0 0 0 0 0 0 0 0 0 0 0 0 0 0 0 0 0 0 0 0 0 0 0 0 0 0 0 0 0 0 0 0 0 0 0 0 0 0 0 0 0 0
0 0 0 0 0 0 0 0 0 0 0 0 0 0 0 0 0 0 0 0 0 0 0 0 0 0 0 0 0 0 0 0 0 0 0 0 0 0 0 0 0 0 0 0
0 0 0 0 0 0 0 0 0 0 0 0 0 0 0 0 0 0 0 0 0 0 0 0 0 0 0 0 0 0 0 0 0 0 0 0 0 0 0 0 0 0 0 0
0 0 0 0 0 0 0 0 0 0 0 0 0 0 0 0 0 0 0 0 0 0 0 0 0 0 0 0 0 0 0 0 0 0 0 0 0 0 0 0 0 0 0 0
0 0 0 0 0 0 0 0 0 0 0 0 0 0 0 0 0 0 0 0 0 0 0 0 0 0 0 0 0 0 0 0 0 0 0 0 0 0 0 0 0 0 0 0
0 0 0 0 0 0 0 0 0 0 0 0 0 0 0 0 0 0 0 0 0 0 0 0 0 0 0 0 0 0 0 0 0 0 0 0 0 0 0 0 0 0 0 0
0 0 0 0 0 0 0 0 0 0 0 0 0 0 0 0 0 0 0 0 0 0 0 0 0 0 0 0 0 0 0 0 0 0 0 0 0 0 0 0 0 0 0 0
0 0 0 0 0 0 0 0 0 0 0 0 0 0 0 0 0 0 0 0 0 0 0 0 0 0 0 0 0 0 0 0 0 0 0 0 0 0 0 0 0 0 0 0
0 0 0 0 0 0 0 0 0 0 0 0 0 0 0 0 0 0 0 0 0 0 0 0 0 0 0 0 0 0 0 0 0 0 0 0 0 0 0 0 0 0 0 0
Wind_Speed
1 1 1 1 2 2 1 2 3 2 0 2 5 7 7 7 7 7 7 6 7 6 5 5 5 4 4 4 4 5 5 4 3 2 2 1 1 1 1 1 2 1 2 1
2 1 1 2 1 2 2 2 3 1 0 2 5 9 8 8 9 8 8 7 7 6 5 6 5 5 5 5 4 4 4 4 4 3 2 1 1 1 1 1 1 1 1 1
2 1 1 2 1 2 2 2 2 2 3 4 4 7 7 6 7 7 7 7 7 7 7 6 6 6 5 5 5 4 4 4 4 4 2 2 1 1 1 1 1 1 1 1
1 1 1 1 1 1 2 1 2 2 2 2 2 5 5 5 6 8 7 6 6 5 5 6 6 5 5 5 4 4 5 4 4 5 4 3 2 2 2 1 1 1 1 1
1 1 1 1 1 1 0 2 3 4 3 3 2 4 6 4 6 8 7 6 5 5 5 6 6 6 5 4 4 4 5 4 4 5 4 3 2 2 2 2 2 1 1 1
2 1 2 1 1 0 1 1 3 2 1 4 5 4 6 4 6 5 6 6 6 5 5 4 5 5 4 4 4 4 4 4 4 5 5 4 4 3 3 2 2 1 1 1
1 2 1 1 0 1 1 0 1 1 2 5 3 4 8 4 2 3 4 5 5 5 5 5 5 5 5 5 5 4 5 4 4 5 5 4 4 4 4 3 3 2 1 1
2 2 2 0 0 2 2 1 2 2 3 2 2 6 6 1 2 2 1 2 4 4 4 5 5 5 5 5 5 5 5 4 4 5 4 4 4 3 2 3 2 2 2 2
2 1 1 0 2 1 1 1 0 1 1 3 5 5 4 1 1 1 2 2 4 5 5 5 5 5 5 6 6 6 5 4 4 4 4 4 4 3 3 3 2 2 1 1
1 2 1 1 1 2 1 0 1 2 1 4 5 4 4 3 4 3 3 3 4 4 5 5 5 6 5 5 5 5 5 5 4 4 4 4 4 3 3 3 3 2 2 2
1 3 1 2 4 4 2 2 2 2 2 2 4 5 2 2 2 3 3 3 3 4 5 5 5 5 6 5 5 5 5 4 4 5 4 4 4 3 3 3 3 3 2 2
1 2 2 2 1 2 1 3 3 3 4 3 3 8 1 2 1 1 2 3 3 3 4 5 5 5 5 5 5 5 5 5 5 5 5 4 4 4 4 3 3 3 3 3
2 3 1 1 1 1 3 4 3 2 1 3 4 8 2 1 2 1 2 2 1 2 3 4 4 5 5 5 6 6 6 6 5 5 5 5 4 4 4 4 3 3 3 3
0 2 4 6 3 3 5 5 6 5 5 5 9 9 6 4 4 3 2 2 2 3 4 4 4 4 5 5 5 5 5 5 5 5 5 5 5 5 4 4 4 4 3 3
1 3 3 5 3 2 5 7 9 11 10 9 8 8 10 6 4 3 2 1 1 3 3 5 5 4 4 4 5 5 5 5 6 6 6 5 4 4 4 4 4 3 3 3
2 2 1 4 2 3 6 9 11 12 10 11 11 14 10 6 3 3 3 3 4 4 4 4 4 5 5 6 6 5 5 5 5 6 5 4 4 4 4 4 4 4 3 3
4 4 2 3 1 3 10 12 14 10 10 10 14 13 5 4 5 5 5 5 5 5 4 4 5 5 6 6 6 6 6 5 5 5 4 4 4 4 4 4 4 4 4 3
5 4 2 1 1 7 9 3 10 11 11 12 11 9 6 6 5 4 4 5 6 5 4 4 4 4 4 4 4 5 5 5 5 5 5 5 5 5 4 4 4 4 3 3
3 5 3 2 4 10 8 4 7 7 9 11 14 12 8 3 4 5 4 4 5 4 3 3 3 3 3 4 5 5 5 5 5 5 5 5 5 5 5 5 4 4 3 3
2 2 3 4 4 9 7 3 4 3 8 6 10 10 6 2 3 5 1 1 1 1 1 2 2 2 3 3 5 6 5 5 5 5 4 4 4 5 5 5 4 3 3 3
5 4 6 6 7 11 5 4 5 5 7 2 5 6 5 6 6 2 1 1 1 1 1 3 3 3 2 3 5 5 4 5 4 4 4 4 4 4 4 3 3 3 3 3
11 9 9 7 8 13 5 7 9 8 1 1 2 3 4 5 2 1 1 1 1 1 1 3 3 2 2 3 5 4 4 3 3 4 4 4 3 3 3 4 3 3 4 3
10 11 8 12 12 3 8 8 5 1 2 2 2 3 3 3 3 3 2 2 2 1 1 2 3 2 2 3 4 4 3 3 4 4 3 3 3 3 3 4 4 3 3 3
6 3 4 6 9 6 6 6 5 4 4 3 3 3 3 4 4 3 3 2 2 1 2 2 2 2 2 2 2 2 2 3 4 4 3 3 3 3 3 3 3 4 4 4
6 6 5 8 8 6 6 6 8 6 5 5 4 4 4 4 5 4 3 3 3 2 2 2 3 4 3 2 2 2 3 4 4 3 3 3 3 3 3 3 3 4 4 5
7 9 9 10 7 6 6 4 4 5 6 6 5 5 4 5 6 4 4 3 3 2 2 3 3 3 2 2 2 2 3 3 4 3 3 3 3 3 3 3 2 4 5 5
Wind_Direction
157 109 140 209 220 271 292 263 271 301 190 264 253 259 248 216 217 226 220 213 210 206 181 172 174 169 167 170 174 183 171 171 160 154 154 155 160 151 113 94 67 54 40 29
139 202 320 331 265 252 261 264 277 293 145 273 271 267 252 224 217 219 218 216 214 199 183 180 179 174 176 177 182 180 179 176 170 166 170 163 160 168 142 117 100 71 62 33
152 100 255 267 271 236 274 260 282 296 307 240 263 272 232 215 210 216 220 216 210 198 193 189 187 185 182 186 186 187 185 183 175 163 151 141 138 131 125 149 149 121 78 62
117 68 262 238 279 299 253 2 316 286 282 264 220 287 250 208 209 215 217 214 208 195 193 191 189 190 188 189 180 186 185 183 174 160 166 172 175 177 183 169 158 144 130 106
93 38 345 206 1 343 83 331 299 272 273 292 233 252 272 194 221 220 211 207 203 193 193 195 191 191 184 176 174 184 185 180 175 168 172 175 176 181 155 144 152 163 161 134
96 39 4 13 357 303 182 280 269 247 249 265 217 211 271 213 211 210 204 204 201 192 192 194 185 176 175 168 167 178 184 182 180 174 173 175 178 175 163 162 172 174 158 146
152 156 114 318 96 140 254 75 359 311 247 248 183 215 251 237 167 173 190 198 194 189 187 189 183 177 178 174 175 178 180 187 187 181 177 179 182 181 181 177 178 175 164 164
175 235 175 230 65 190 223 219 180 229 254 273 211 235 250 219 89 85 135 189 186 192 190 192 189 181 179 178 177 179 183 187 186 182 177 176 177 178 179 175 167 175 179 173
173 207 103 74 325 306 181 207 296 154 286 283 251 249 269 213 212 217 233 220 202 196 193 192 189 183 180 180 183 183 183 186 188 182 177 176 178 177 171 167 161 158 168 158
124 162 200 157 230 278 312 208 126 159 231 278 276 251 243 232 234 221 228 236 219 195 194 192 189 187 180 179 181 179 182 189 188 180 179 176 174 173 170 161 167 169 163 151
83 140 193 196 205 193 184 206 209 204 219 224 279 269 244 189 190 204 229 229 216 200 193 190 189 184 174 170 174 180 182 183 185 179 173 168 170 168 163 164 176 171 157 148
137 145 207 212 108 23 224 217 185 179 239 225 256 269 292 47 74 201 241 227 207 189 181 178 179 174 170 175 178 182 184 185 186 176 171 171 170 167 166 171 172 162 160 156
144 146 115 324 267 246 235 222 212 187 180 209 222 262 285 345 331 296 261 244 196 177 176 169 169 174 180 183 183 184 184 182 177 171 172 170 172 174 175 175 168 161 161 156
127 191 201 216 224 175 219 214 197 181 200 225 229 255 277 274 281 282 260 225 190 185 184 183 185 186 185 183 181 183 184 177 171 171 173 176 181 181 178 173 167 165 160 156
176 213 238 268 283 245 233 221 202 207 214 220 242 251 262 266 262 256 242 223 205 208 204 196 195 194 188 185 184 182 180 174 171 171 176 185 179 175 169 168 165 159 156 161
178 195 244 278 241 245 261 240 218 223 229 241 264 271 261 268 270 263 251 233 230 229 220 210 201 194 193 193 189 182 179 172 166 171 178 175 166 162 165 167 159 154 156 158
172 160 173 261 276 317 266 225 201 209 211 205 231 244 254 257 256 249 244 235 231 233 227 220 213 202 197 192 185 181 175 161 160 167 168 165 165 167 170 163 156 162 167 164
165 163 175 259 10 247 244 173 184 208 228 216 235 252 245 245 262 257 239 230 236 233 222 218 217 210 192 173 168 161 151 153 159 164 168 168 167 169 165 161 169 173 168 172
190 173 177 185 246 270 275 212 175 195 253 220 229 246 252 261 306 277 241 219 221 217 210 203 189 181 160 156 158 148 150 151 158 171 175 174 171 170 168 174 178 172 165 172
202 194 189 193 220 243 252 169 151 141 273 234 210 231 235 171 257 268 253 178 203 199 158 144 125 117 137 152 146 144 153 157 176 181 175 167 168 174 178 179 170 162 167 177
174 190 205 210 232 259 247 155 134 174 250 230 193 211 196 198 223 245 118 147 172 158 122 121 119 124 143 138 137 150 161 185 186 164 156 157 165 172 172 165 156 157 163 160
177 179 197 192 218 250 180 150 187 218 245 147 196 209 206 221 232 244 224 207 194 172 125 130 134 135 124 132 144 162 187 184 149 146 152 160 165 168 163 161 159 159 161 166
199 194 190 198 216 238 172 199 221 256 240 241 239 246 224 227 239 246 248 228 216 189 166 144 145 143 136 148 157 177 189 145 140 143 158 161 159 165 165 167 168 167 173 182
227 209 212 244 255 248 233 246 262 250 243 258 264 265 236 235 243 248 249 237 224 201 180 157 150 165 185 174 170 179 151 142 146 158 166 163 162 165 168 176 178 183 188 194
208 178 211 248 268 289 265 241 251 255 252 253 255 253 248 245 254 247 245 237 224 214 187 170 181 193 201 176 171 149 141 143 155 164 167 170 172 174 180 190 198 201 206 201
191 187 196 231 227 218 250 258 243 240 247 246 249 262 259 240 248 247 244 238 221 211 191 186 195 195 190 167 164 144 147 156 162 171 178 181 178 181 186 191 216 232 225 226